Location: Unspecified
(52.6650°N, 0.0000°E)
Time: 03:22:38
(UTC+00:00)

Meteor 1-12 - Visible Passes

Search period start: 04 April 2026 00:00
Search period end: 14 April 2026 00:00
Orbit: 874 x 889 km, 81.2° (Epoch: 29 March)

Date Brightness Start Highest point End Pass type
(mag) Time Alt. Az. Time Alt. Az. Time Alt. Az.
4 Apr 5.9 01:17:19 10° N 01:22:46 39° ENE 01:25:13 27° ESE visible
4 Apr 5.2 03:00:59 10° NNW 03:06:27 43° W 03:07:51 37° SW visible
4 Apr 7.5 23:34:01 10° NE 23:34:37 10° NE 23:35:14 10° NE visible
5 Apr 5.8 01:14:27 10° N 01:20:00 42° ENE 01:22:07 31° ESE visible
5 Apr 5.3 02:58:12 10° NNW 03:03:35 40° W 03:04:45 36° WSW visible
5 Apr 7.4 23:30:25 10° NNE 23:31:56 11° NE 23:33:26 10° ENE visible
6 Apr 5.7 01:11:36 10° N 01:17:13 45° ENE 01:19:03 35° ESE visible
6 Apr 5.4 02:55:26 10° NNW 03:00:43 37° W 03:01:41 34° WSW visible
6 Apr 7.3 23:27:12 10° NNE 23:29:13 12° NE 23:31:15 10° ENE visible
7 Apr 5.5 01:08:45 10° N 01:14:26 48° ENE 01:16:01 39° ESE visible
7 Apr 5.5 02:52:40 10° NNW 02:57:52 34° W 02:58:40 33° WSW visible
7 Apr 7.3 23:24:04 10° NNE 23:26:32 13° NE 23:28:58 10° ENE visible
8 Apr 5.4 01:05:54 10° N 01:11:38 52° ENE 01:13:01 43° ESE visible
8 Apr 5.6 02:49:55 10° NNW 02:54:59 32° W 02:55:40 31° WSW visible
8 Apr 7.2 23:21:01 10° NNE 23:23:49 13° NE 23:26:36 10° ENE visible
9 Apr 5.2 01:03:04 10° N 01:08:50 56° ENE 01:10:03 47° ESE visible
9 Apr 5.7 02:47:10 10° NNW 02:52:06 29° W 02:52:42 29° W visible
9 Apr 7.2 23:18:00 10° NNE 23:21:06 14° NE 23:24:10 10° E visible
10 Apr 5.1 01:00:14 10° N 01:06:02 61° ENE 01:07:05 52° ESE visible
10 Apr 5.8 02:44:26 10° NNW 02:49:14 27° W 02:49:44 27° W visible
10 Apr 7.1 23:15:01 10° NNE 23:18:23 15° NE 23:21:30 11° E visible
11 Apr 5.0 00:57:24 10° N 01:03:14 66° ENE 01:04:09 57° ESE visible
11 Apr 5.9 02:41:42 10° NNW 02:46:21 25° W 02:46:48 25° W visible
11 Apr 7.0 23:12:03 10° NNE 23:15:39 16° NE 23:18:35 12° E visible
12 Apr 4.9 00:54:33 10° N 01:00:25 71° ENE 01:01:14 62° SE visible
12 Apr 6.0 02:38:59 10° NW 02:43:27 23° W 02:43:53 23° W visible
12 Apr 6.9 23:09:06 10° NNE 23:12:56 18° NE 23:15:41 13° E visible
13 Apr 4.8 00:51:43 10° N 00:57:36 76° ENE 00:58:20 66° SE visible
13 Apr 6.1 02:36:17 10° NW 02:40:34 22° W 02:40:59 21° W visible
13 Apr 6.8 23:06:10 10° N 23:10:12 19° NE 23:12:47 14° E visible
